Temperature
17 17 17 17 17 17 17 17 17 17 17 17 17 17 17 17 17 17 17 17 17 17 17 17 17 16 16 16 16 16 16 16 16 16 16 16 16 16 16 16 16 16 16
17 17 17 17 17 17 17 17 17 17 17 17 17 17 17 17 17 17 17 17 17 17 17 17 17 17 16 16 16 16 16 16 16 16 16 16 16 16 16 16 16 16 16
17 17 17 17 17 17 17 17 17 17 17 17 17 17 17 17 17 17 17 17 17 17 17 17 17 17 16 16 16 16 16 16 16 16 16 16 16 16 16 16 16 16 16
17 17 17 17 17 17 17 17 17 17 18 18 18 17 17 17 17 17 17 17 17 17 17 17 17 17 17 17 16 16 16 16 16 16 16 16 16 16 16 16 16 16 16
18 18 18 17 17 17 18 18 18 17 17 18 18 18 18 18 17 17 17 17 17 17 17 17 17 17 17 17 16 16 16 16 16 16 16 16 16 16 16 16 16 16 16
18 18 17 17 17 18 17 17 17 17 17 17 18 18 18 18 18 18 17 17 17 17 17 17 17 17 17 17 17 16 16 16 16 16 16 16 16 16 16 16 16 16 15
18 18 18 17 18 17 17 17 17 17 17 17 18 18 18 18 18 18 18 18 17 17 17 17 17 16 16 17 17 17 16 16 16 16 16 16 16 16 16 16 16 16 16
18 18 18 18 17 17 17 17 17 17 17 17 17 18 18 19 18 18 18 17 17 17 17 17 17 17 16 16 16 17 16 16 16 16 16 16 16 16 16 16 15 15 15
18 18 17 17 17 17 17 17 17 17 17 17 17 17 18 19 18 18 18 18 17 17 17 17 17 17 16 16 16 16 16 16 16 16 16 16 16 16 16 16 15 15 15
18 17 17 17 17 17 17 17 17 17 17 17 17 17 17 18 18 18 18 18 17 17 17 17 17 17 16 16 16 16 16 16 16 16 16 16 16 16 15 15 15 15 15
18 17 17 17 17 17 17 17 17 17 17 17 17 17 17 17 17 17 17 17 17 17 17 17 16 16 16 16 16 16 16 16 16 16 16 16 16 15 15 15 15 15 15
17 17 17 17 17 17 17 17 17 17 17 17 17 17 17 17 17 17 17 17 17 17 16 16 16 16 16 16 16 16 16 16 16 16 16 15 15 15 15 15 15 15 15
17 17 17 17 17 17 17 17 17 17 17 17 17 17 17 17 17 17 16 16 16 16 16 16 16 16 16 16 15 15 15 15 15 15 15 15 15 15 15 15 15 14 14
17 17 17 17 17 17 17 17 17 17 17 17 16 16 16 16 16 16 16 16 16 16 16 16 16 16 15 15 15 15 15 15 15 15 15 15 15 14 14 14 14 14 14
17 17 17 17 17 17 17 17 17 17 16 16 16 16 16 16 16 16 16 16 15 15 15 15 15 15 15 15 15 14 14 14 14 14 14 14 14 14 14 14 14 14 14
17 17 17 17 17 17 17 16 16 16 16 16 16 16 16 15 15 15 15 15 15 15 15 15 15 14 14 14 14 14 14 14 14 14 14 14 14 14 13 13 13 13 13
17 17 17 17 16 16 16 16 16 16 16 16 15 15 15 15 15 15 15 15 15 15 15 14 14 14 14 14 13 13 13 13 13 13 13 13 13 13 13 13 12 12 12
17 16 16 16 16 16 16 16 15 15 15 15 15 15 14 14 14 14 14 14 15 14 14 14 14 13 13 13 13 13 13 13 12 12 12 12 12 12 12 12 12 12 12
16 16 16 16 16 16 16 15 15 15 15 15 14 14 14 14 14 14 14 14 14 14 14 14 13 13 13 12 12 12 12 12 12 12 11 11 11 11 11 11 11 11 11
16 15 15 15 15 15 15 15 14 14 14 14 14 14 14 14 14 14 14 13 13 13 13 13 13 13 12 12 12 12 12 11 11 11 11 11 11 11 11 10 10 10 10
15 15 15 15 15 15 14 14 14 14 14 14 14 13 13 13 13 13 13 13 13 13 13 13 13 12 12 12 12 11 11 11 11 10 10 10 10 10 10 10 10 10 10
15 15 15 15 14 14 14 14 14 13 13 13 13 13 13 13 13 13 13 13 13 12 12 12 12 12 11 11 11 11 11 11 10 10 10 10 9 9 9 9 9 9 9
15 15 14 14 14 14 14 14 13 13 13 13 13 12 12 12 12 12 12 12 12 12 12 11 11 11 11 11 11 11 10 10 10 9 9 9 9 9 8 8 8 8 8
14 14 14 14 14 14 13 13 13 12 12 12 12 12 12 12 12 11 11 11 11 11 11 11 11 11 10 10 10 10 10 10 9 9 9 9 8 8 8 8 8 8 8
14 13 13 13 13 13 13 13 12 12 12 11 11 11 11 11 11 11 11 11 10 10 10 10 10 10 10 10 10 10 10 10 10 9 9 8 8 8 7 7 7 7 7
13 13 13 13 13 13 12 12 12 11 11 11 11 11 11 11 11 11 10 10 10 10 10 10 10 9 9 9 9 9 9 10 10 9 8 8 8 8 8 7 7 7 7
Wind_Speed
2 2 1 1 1 2 3 2 1 1 1 2 2 2 1 2 2 3 7 9 8 8 9 9 9 9 9 9 9 9 9 9 9 10 9 9 9 9 9 9 9 9 9
1 1 2 2 2 2 1 2 2 2 2 1 2 2 2 2 3 2 4 9 10 9 9 10 10 10 11 11 11 10 10 10 10 11 11 10 10 10 10 10 10 10 10
2 2 2 3 2 2 2 2 2 2 2 2 2 3 3 3 3 4 4 4 8 11 11 11 11 11 11 11 11 11 11 11 12 12 12 12 12 12 12 11 11 11 11
4 4 3 3 3 3 3 2 3 3 2 3 3 3 3 3 4 5 6 5 5 7 11 13 12 11 11 11 12 12 13 13 13 13 13 13 13 13 13 13 13 12 12
5 5 4 3 4 3 3 4 2 3 3 3 4 4 4 4 5 6 5 6 6 6 6 12 14 13 13 13 13 13 13 13 13 14 14 14 14 14 14 14 14 14 14
5 5 4 4 5 3 3 3 3 3 4 4 5 3 4 5 5 5 6 7 7 7 7 7 9 13 15 14 14 13 13 14 14 14 14 14 14 15 15 15 15 15 15
5 5 4 3 4 3 4 5 4 4 4 3 4 4 5 6 5 5 5 5 6 6 6 6 7 7 9 16 16 14 14 14 14 15 15 16 15 15 17 17 16 16 16
4 5 5 4 4 4 5 5 5 5 5 4 4 4 3 4 4 5 5 5 5 5 6 8 7 7 7 7 10 15 15 14 14 15 15 16 16 16 16 17 17 17 17
4 4 4 4 4 5 5 5 6 6 5 4 4 4 3 3 2 3 4 4 4 4 5 5 7 7 8 8 7 10 13 13 13 13 14 14 15 16 16 16 17 17 17
4 4 5 5 5 5 4 6 5 5 6 5 4 5 6 4 3 3 3 3 4 4 5 4 4 5 6 6 6 5 7 10 10 11 11 12 12 13 14 15 15 16 17
3 4 4 4 4 4 4 5 4 6 5 5 5 5 5 5 6 5 5 3 3 3 3 4 3 4 5 5 5 5 6 7 9 10 11 12 12 13 13 14 14 14 14
1 2 3 3 4 3 4 4 4 6 5 6 5 5 5 5 5 5 5 5 4 3 2 3 3 4 5 5 4 2 4 5 7 8 9 10 11 12 12 12 13 14 14
1 1 2 2 2 2 3 3 4 4 5 5 5 4 4 5 4 4 5 5 4 4 3 2 2 3 4 3 2 2 2 3 4 5 6 7 8 8 9 9 10 10 12
1 0 1 1 2 2 2 2 3 3 3 3 4 4 4 4 4 4 3 3 4 4 3 3 1 2 2 1 1 1 1 1 1 2 3 3 4 5 6 7 7 7 7
0 0 0 0 1 1 2 2 2 2 1 2 2 2 3 3 3 3 3 3 4 4 3 2 1 2 2 3 3 3 3 5 5 4 2 2 1 1 1 1 2 3 3
2 2 2 2 2 2 2 2 1 2 2 2 2 3 3 3 2 2 3 3 3 3 2 2 2 2 3 3 5 5 5 7 7 6 6 5 5 5 4 3 2 3 3
3 3 3 3 3 3 3 3 2 2 2 3 3 3 3 3 3 2 2 2 2 2 1 1 2 2 3 3 4 4 4 5 6 8 8 7 7 7 7 6 6 5 5
4 3 3 4 4 4 4 3 3 3 3 4 4 4 4 3 3 3 2 2 1 1 1 1 1 2 3 3 3 3 4 5 6 9 9 9 9 8 8 8 9 9 9
4 4 4 4 4 4 4 4 4 4 4 5 5 5 4 4 4 3 3 2 2 2 2 2 2 2 3 3 3 3 5 4 5 8 9 10 10 10 10 9 10 10 10
5 5 5 5 5 5 5 4 4 5 5 5 6 6 6 6 5 4 3 4 3 3 3 3 3 3 3 3 3 3 4 4 4 6 7 8 9 10 10 10 11 11 11
6 6 6 6 6 6 6 5 5 5 5 6 6 7 8 9 11 9 6 5 4 3 3 3 3 3 3 3 3 2 3 3 4 4 4 5 6 7 8 10 11 11 10
7 7 7 7 7 7 9 9 5 6 6 6 6 6 7 9 10 12 13 13 11 6 4 4 4 4 4 3 3 2 2 2 3 3 3 4 5 5 7 9 11 10 10
7 7 7 8 8 8 9 8 7 6 7 6 6 6 6 7 7 7 9 9 11 12 9 6 5 4 4 3 2 3 3 3 3 3 3 4 4 5 7 10 12 11 10
7 7 7 7 8 8 8 6 5 6 8 8 7 7 7 8 8 7 7 8 9 9 8 7 6 6 6 5 3 3 3 4 4 4 3 3 4 4 6 8 10 10 10
7 7 7 7 7 7 8 6 4 6 7 8 8 9 8 9 9 7 6 7 7 8 10 11 9 8 9 8 6 3 3 2 3 4 3 2 3 3 4 5 7 8 8
7 7 7 7 7 7 7 7 6 5 6 7 7 8 12 9 9 8 5 6 7 6 6 6 7 6 8 8 7 6 4 3 3 3 3 2 2 1 2 3 3 4 4
Wind_Direction
140 131 128 162 204 174 173 188 179 130 181 176 176 160 144 135 137 142 137 159 178 188 191 191 192 192 193 195 196 197 198 199 195 192 194 197 197 196 195 194 194 193 193
168 188 184 208 221 216 199 208 187 197 221 203 208 196 217 202 168 191 172 168 186 197 202 203 202 202 202 203 205 206 209 209 207 204 205 206 207 207 207 208 208 207 205
208 228 222 216 217 220 206 220 222 224 223 213 212 216 222 240 219 210 211 198 185 191 200 206 209 209 210 210 211 212 215 216 215 214 213 213 215 215 216 217 215 215 214
232 235 235 231 218 227 224 220 233 234 232 238 236 236 231 221 226 221 215 214 212 195 191 199 209 215 216 217 218 219 221 221 221 220 220 220 221 219 219 220 220 221 220
231 235 243 243 240 238 237 246 210 250 252 255 244 227 234 231 226 222 220 223 219 219 207 187 203 216 220 224 226 225 226 224 223 223 224 225 225 224 223 223 224 224 225
226 238 237 230 243 244 245 250 256 250 259 257 262 252 242 233 230 225 225 220 222 222 224 211 205 211 214 221 227 229 232 229 227 226 226 225 227 227 225 225 226 227 229
230 239 253 226 237 239 253 253 254 246 250 255 264 257 242 231 228 226 230 229 224 226 227 223 230 230 211 212 220 228 233 234 231 229 229 228 228 229 228 227 227 229 231
235 236 243 244 235 243 249 256 254 260 259 242 260 272 262 228 222 224 222 224 233 230 230 226 230 233 245 227 214 219 229 233 235 233 232 230 230 230 229 229 230 231 233
229 251 244 252 249 249 245 249 250 247 259 256 248 255 270 266 270 216 216 226 234 243 244 236 228 231 235 240 241 216 218 226 234 237 235 234 232 232 231 230 232 232 232
236 236 238 242 251 257 254 251 243 252 254 256 250 245 259 283 276 265 234 221 222 236 248 254 246 236 235 238 241 245 219 222 229 235 238 237 234 235 234 234 236 236 234
239 242 238 242 251 259 261 266 268 259 253 256 256 256 254 252 248 252 261 256 246 244 244 253 258 259 254 244 243 238 217 226 234 237 239 242 241 239 238 239 240 240 240
238 249 249 254 258 262 257 253 253 251 258 262 264 261 259 260 256 255 261 260 261 263 254 257 261 260 255 251 239 213 203 220 234 240 243 246 247 245 244 243 244 244 245
234 235 270 272 283 278 271 267 255 263 261 264 267 269 269 269 279 268 261 264 266 268 258 254 260 261 261 252 229 178 206 218 232 242 249 252 253 252 247 245 248 249 247
274 314 277 281 293 297 293 285 272 261 270 275 279 284 283 282 281 271 264 266 271 265 251 259 274 300 295 268 88 178 247 165 194 234 243 242 254 259 250 242 237 237 243
295 57 82 55 12 354 330 313 319 314 320 303 302 300 297 302 296 289 278 261 259 272 277 307 342 8 39 58 62 75 65 76 95 99 93 78 45 351 316 269 219 204 201
43 55 62 57 46 32 21 12 0 13 10 1 350 352 335 328 324 308 288 273 254 257 275 331 5 17 50 62 70 76 81 80 80 87 82 80 75 72 66 60 82 122 121
71 70 66 63 56 50 45 37 25 23 24 17 1 359 353 335 328 320 307 293 279 244 227 327 27 56 61 65 68 71 77 81 78 91 90 82 80 79 78 74 77 81 89
78 73 71 68 59 53 48 43 38 33 27 19 9 4 359 354 352 339 341 342 359 56 153 119 42 59 58 70 70 65 72 77 81 89 90 84 80 77 78 80 82 81 79
80 74 70 68 61 57 57 52 50 45 40 35 27 23 17 17 14 14 8 25 42 74 94 110 88 75 66 71 75 74 70 66 77 88 91 86 81 80 79 81 81 80 79
84 77 73 69 66 63 60 59 62 61 56 53 48 44 38 34 26 25 38 41 48 70 83 95 89 82 72 58 57 68 73 63 60 69 74 79 83 85 82 79 77 77 78
86 81 78 73 68 65 53 53 69 69 65 66 62 60 58 55 47 41 43 46 50 58 74 80 82 78 66 50 41 43 69 78 65 48 65 68 73 69 73 77 76 74 78
85 83 80 77 71 64 44 34 40 76 71 69 66 65 72 66 65 64 58 52 45 48 50 55 68 67 53 39 37 46 64 65 62 36 48 57 61 60 63 67 68 71 74
92 87 84 82 79 66 50 43 28 65 74 68 65 61 63 64 65 71 78 76 62 51 42 44 59 50 52 40 45 70 63 56 56 56 59 62 56 64 75 75 74 74 76
96 92 88 86 84 70 52 44 30 78 76 72 67 62 64 61 49 46 71 72 66 56 51 54 57 49 51 44 46 78 91 101 94 75 57 79 70 69 78 84 81 79 80
103 99 91 87 87 79 52 32 9 91 85 77 71 64 63 67 33 17 71 77 79 82 80 77 71 71 67 55 31 55 75 89 91 81 58 73 93 92 84 87 96 97 90
112 107 97 90 88 84 55 26 351 93 93 93 87 80 63 52 31 14 67 75 76 69 72 84 87 86 77 72 57 36 29 47 75 84 52 37 99 112 104 96 101 107 102
Height
1574 1574 1574 1575 1576 1577 1578 1578 1579 1579 1579 1579 1580 1580 1580 1580 1581 1581 1580 1580 1580 1580 1581 1581 1582 1583 1584 1584 1585 1586 1586 1587 1588 1589 1589 1590 1590 1591 1592 1592 1593 1593 1594
1573 1574 1574 1575 1576 1577 1578 1578 1578 1578 1579 1579 1579 1580 1580 1580 1580 1580 1581 1580 1580 1580 1580 1581 1582 1582 1583 1584 1584 1585 1586 1586 1587 1588 1588 1589 1589 1590 1591 1591 1592 1593 1593
1573 1573 1574 1575 1575 1576 1577 1577 1578 1578 1578 1579 1579 1579 1579 1579 1580 1579 1580 1580 1580 1579 1580 1580 1581 1581 1582 1583 1583 1584 1584 1585 1586 1586 1587 1587 1588 1589 1589 1590 1590 1591 1592
1572 1572 1573 1574 1575 1575 1576 1576 1577 1578 1578 1578 1578 1578 1578 1578 1578 1578 1579 1579 1579 1580 1579 1579 1579 1580 1580 1581 1582 1582 1583 1583 1584 1585 1585 1586 1586 1587 1587 1588 1588 1589 1590
1571 1571 1572 1573 1573 1574 1575 1576 1576 1577 1577 1577 1577 1576 1576 1576 1577 1577 1577 1577 1578 1578 1578 1577 1578 1578 1579 1579 1580 1580 1581 1581 1582 1582 1583 1584 1584 1584 1585 1585 1586 1587 1587
1569 1570 1571 1571 1572 1573 1573 1574 1574 1574 1575 1575 1575 1575 1575 1574 1575 1575 1575 1575 1576 1576 1577 1577 1576 1576 1576 1577 1577 1578 1578 1578 1579 1580 1580 1580 1581 1582 1582 1583 1583 1584 1584
1568 1568 1569 1569 1570 1571 1572 1573 1573 1573 1573 1573 1573 1573 1572 1572 1572 1572 1573 1573 1573 1574 1574 1574 1574 1574 1574 1574 1574 1575 1575 1576 1576 1576 1577 1577 1578 1578 1579 1579 1580 1580 1581
1566 1567 1567 1568 1568 1569 1570 1570 1570 1571 1571 1571 1571 1571 1570 1571 1569 1570 1570 1570 1571 1571 1571 1571 1571 1571 1571 1572 1571 1572 1572 1572 1573 1573 1573 1573 1574 1574 1575 1575 1576 1576 1577
1565 1565 1565 1566 1566 1567 1568 1568 1568 1568 1569 1569 1569 1569 1569 1568 1568 1568 1567 1568 1568 1568 1568 1569 1568 1568 1568 1568 1569 1568 1568 1569 1569 1569 1570 1570 1570 1570 1571 1571 1571 1572 1572
1563 1564 1563 1564 1564 1565 1565 1565 1566 1566 1566 1566 1566 1566 1566 1566 1566 1565 1566 1565 1565 1565 1565 1566 1566 1565 1565 1565 1565 1565 1565 1565 1565 1565 1566 1566 1566 1566 1566 1567 1567 1567 1568
1562 1562 1562 1562 1562 1562 1563 1563 1563 1563 1563 1563 1563 1563 1563 1563 1563 1563 1562 1563 1562 1562 1562 1562 1562 1562 1562 1562 1561 1561 1561 1561 1562 1562 1562 1562 1562 1562 1562 1562 1562 1563 1563
1560 1560 1560 1560 1560 1560 1560 1560 1560 1560 1560 1560 1560 1560 1560 1560 1560 1560 1559 1559 1559 1559 1559 1558 1559 1558 1558 1558 1558 1557 1557 1557 1558 1558 1558 1558 1558 1558 1558 1558 1558 1558 1558
1559 1558 1558 1558 1558 1558 1558 1558 1557 1557 1557 1557 1556 1556 1556 1556 1557 1556 1556 1555 1555 1555 1555 1555 1555 1554 1554 1554 1554 1553 1553 1553 1553 1553 1553 1553 1553 1553 1553 1553 1553 1553 1553
1557 1557 1556 1556 1556 1556 1556 1555 1555 1555 1555 1554 1554 1553 1553 1554 1553 1553 1553 1553 1552 1552 1552 1552 1552 1551 1551 1550 1550 1549 1549 1549 1549 1549 1548 1548 1548 1548 1548 1548 1548 1548 1548
1555 1555 1555 1554 1554 1554 1554 1554 1554 1553 1553 1552 1552 1551 1551 1551 1551 1550 1550 1550 1551 1550 1549 1550 1549 1549 1548 1548 1547 1546 1546 1545 1545 1545 1545 1544 1544 1544 1544 1544 1544 1544 1544
1554 1554 1554 1553 1553 1553 1552 1552 1552 1551 1551 1550 1549 1549 1548 1548 1548 1548 1547 1547 1547 1547 1547 1547 1547 1547 1546 1545 1544 1544 1543 1543 1542 1542 1542 1541 1541 1541 1541 1540 1540 1540 1539
1552 1552 1552 1552 1552 1551 1551 1551 1550 1550 1549 1549 1548 1548 1547 1546 1546 1546 1546 1545 1545 1545 1545 1545 1545 1545 1544 1544 1543 1542 1542 1541 1540 1540 1539 1539 1539 1538 1538 1537 1537 1537 1536
1552 1552 1552 1551 1551 1551 1550 1550 1549 1549 1548 1548 1547 1546 1546 1545 1544 1544 1544 1544 1543 1543 1544 1544 1544 1544 1543 1542 1541 1541 1541 1540 1539 1539 1538 1537 1537 1536 1535 1535 1534 1534 1534
1551 1551 1551 1551 1551 1551 1550 1549 1549 1548 1548 1547 1546 1546 1545 1544 1543 1543 1543 1543 1543 1543 1543 1543 1543 1543 1542 1542 1541 1541 1540 1539 1539 1538 1537 1536 1536 1535 1534 1534 1533 1532 1532
1551 1552 1551 1551 1551 1551 1550 1549 1549 1548 1547 1547 1546 1545 1545 1544 1543 1543 1543 1543 1543 1543 1543 1543 1543 1543 1543 1542 1542 1541 1540 1540 1540 1539 1537 1537 1536 1535 1534 1533 1532 1531 1531
1552 1552 1552 1551 1551 1551 1550 1550 1549 1549 1548 1547 1547 1546 1545 1544 1544 1544 1543 1543 1543 1543 1543 1543 1543 1543 1543 1542 1542 1541 1540 1540 1539 1539 1538 1537 1536 1535 1534 1533 1532 1531 1531
1552 1552 1552 1552 1551 1551 1550 1550 1550 1549 1549 1548 1548 1547 1546 1545 1545 1545 1544 1544 1544 1544 1544 1544 1544 1543 1543 1542 1542 1541 1541 1540 1540 1540 1539 1538 1537 1536 1534 1533 1532 1531 1531
1552 1552 1552 1552 1552 1551 1551 1550 1550 1550 1549 1549 1549 1548 1548 1547 1547 1546 1546 1545 1545 1544 1544 1545 1544 1544 1543 1543 1542 1542 1541 1540 1540 1540 1539 1538 1537 1536 1535 1533 1532 1532 1531
1553 1553 1553 1553 1552 1552 1552 1551 1551 1551 1551 1550 1550 1549 1549 1548 1548 1548 1548 1547 1546 1546 1546 1545 1545 1544 1544 1543 1543 1543 1542 1541 1541 1540 1539 1539 1538 1537 1536 1535 1534 1533 1532
1553 1554 1554 1554 1553 1553 1553 1552 1552 1553 1552 1552 1551 1551 1550 1550 1549 1549 1549 1549 1548 1548 1548 1547 1546 1545 1545 1544 1543 1544 1543 1543 1542 1542 1541 1540 1540 1539 1538 1537 1536 1535 1534
1554 1554 1554 1555 1554 1554 1554 1554 1553 1555 1554 1554 1553 1553 1552 1552 1551 1551 1551 1550 1550 1550 1550 1550 1548 1548 1547 1546 1545 1544 1544 1544 1543 1543 1542 1541 1541 1540 1540 1539 1538 1537 1536